Weather History for KELO - September, 2014

Change the Weather History Date:

Monday, September 15, 2014

  Actual Average Record
Temperature  
Mean Temperature 48 °F -  
Max Temperature 55 °F 64 °F 80 °F (2006)
Min Temperature 41 °F 44 °F 24 °F (2011)
Degree Days  
Heating Degree Days 17    
Moisture  
Dew Point 39 °F    
Average Humidity 76    
Maximum Humidity 100    
Minimum Humidity 44    
Precipitation  
Precipitation 0.00 in - - ()
Sea Level Pressure  
Sea Level Pressure 30.12 in    
Wind  
Wind Speed 3 mph (West)    
Max Wind Speed 14 mph    
Max Gust Speed 18 mph    
Visibility 10 miles    
Events      
Averages and records for this station are not official NWS values.
T = Trace of Precipitation, MM = Missing Value Source: NWS Daily Summary

Daily Weather History Graph

Daily Weather History Graph

Search for Another Location

Airport or City:

Trip Planner

Search our weather history database for the weather conditions in past years. The results will help you decide how hot, cold, wet, or windy it might be!

Date:

Astronomy

Sep. 15, 2014 Rise Set
Actual Time 6:44 AM CDT 7:19 PM CDT
Civil Twilight 6:13 AM CDT 7:50 PM CDT
Nautical Twilight 5:36 AM CDT 8:27 PM CDT
Astronomical Twilight 4:57 AM CDT 9:05 PM CDT
Moon 11:37 PM CDT (9/15) 2:10 PM CDT (9/15)
Length of Visible Light 13h 37m
Length of Day
12h 34m
Waning Gibbous, 54% of the Moon is Illuminated
Sep 15
Waning Gibbous
Sep 15
Last Quarter
Sep 24
New
Oct 1
First Quarter
Oct 8
Full

Hourly Weather History & Observations

Time (CDT) Temp. Windchill Dew Point Humidity Pressure Visibility Wind Dir Wind Speed Gust Speed Precip Events Conditions
12:13 AM 42.8 °F - 42.8 °F 100% 30.09 in 10.0 mi Calm Calm - N/A   Mostly Cloudy
12:32 AM 44.6 °F - 42.8 °F 93% 30.09 in 10.0 mi Calm Calm - N/A   Light Drizzle
12:53 AM 44.6 °F - 42.8 °F 93% 30.09 in 10.0 mi Calm Calm - N/A   Overcast
1:13 AM 44.6 °F - 42.8 °F 93% 30.09 in 10.0 mi Calm Calm - N/A   Overcast
1:33 AM 44.6 °F 43.1 °F 42.8 °F 93% 30.09 in 10.0 mi WSW 3.5 mph - N/A   Overcast
1:53 AM 42.8 °F 41.1 °F 42.8 °F 100% 30.09 in 10.0 mi WSW 3.5 mph - N/A   Overcast
2:13 AM 44.6 °F - 42.8 °F 93% 30.09 in 10.0 mi Calm Calm - N/A   Overcast
2:33 AM 44.6 °F 43.1 °F 42.8 °F 93% 30.09 in 10.0 mi WSW 3.5 mph - N/A   Overcast
2:52 AM 44.6 °F 42.2 °F 42.8 °F 93% 30.09 in 10.0 mi WSW 4.6 mph - N/A   Overcast
3:13 AM 44.6 °F 43.1 °F 42.8 °F 93% 30.09 in 10.0 mi West 3.5 mph - N/A   Overcast
3:33 AM 44.6 °F 42.2 °F 42.8 °F 93% 30.09 in 10.0 mi West 4.6 mph - N/A   Overcast
3:53 AM 44.6 °F 42.2 °F 42.8 °F 93% 30.09 in 10.0 mi West 4.6 mph - N/A   Overcast
4:13 AM 44.6 °F 43.1 °F 42.8 °F 93% 30.09 in 10.0 mi West 3.5 mph - N/A   Overcast
4:33 AM 42.8 °F - 42.8 °F 100% 30.10 in 10.0 mi Calm Calm - N/A   Mostly Cloudy
4:53 AM 42.8 °F - 42.8 °F 100% 30.10 in 10.0 mi Calm Calm - N/A   Overcast
5:13 AM 42.8 °F - 42.8 °F 100% 30.10 in 10.0 mi Calm Calm - N/A   Overcast
5:33 AM 44.6 °F - 42.8 °F 93% 30.11 in 10.0 mi Calm Calm - N/A   Overcast
5:53 AM 44.6 °F 43.1 °F 42.8 °F 93% 30.12 in 10.0 mi West 3.5 mph - N/A   Overcast
6:13 AM 44.6 °F - 42.8 °F 93% 30.12 in 10.0 mi Calm Calm - N/A   Overcast
6:33 AM 44.6 °F 43.1 °F 42.8 °F 93% 30.12 in 10.0 mi West 3.5 mph - N/A   Overcast
6:53 AM 42.8 °F - 42.8 °F 100% 30.12 in 10.0 mi Calm Calm - N/A   Overcast
7:13 AM 42.8 °F 41.1 °F 42.8 °F 100% 30.13 in 10.0 mi West 3.5 mph - N/A   Overcast
7:33 AM 42.8 °F - 42.8 °F 100% 30.13 in 10.0 mi Calm Calm - N/A   Overcast
7:53 AM 42.8 °F 41.1 °F 42.8 °F 100% 30.14 in 10.0 mi NW 3.5 mph - N/A   Overcast
8:12 AM 44.6 °F 43.1 °F 42.8 °F 93% 30.14 in 10.0 mi West 3.5 mph - N/A   Overcast
8:33 AM 42.8 °F 38.6 °F 42.8 °F 100% 30.14 in 10.0 mi NW 6.9 mph - N/A   Overcast
8:53 AM 44.6 °F 40.7 °F 42.8 °F 93% 30.15 in 10.0 mi WNW 6.9 mph - N/A   Overcast
9:13 AM 44.6 °F 42.2 °F 42.8 °F 93% 30.15 in 10.0 mi West 4.6 mph - N/A   Overcast
9:33 AM 44.6 °F 40.7 °F 42.8 °F 93% 30.15 in 10.0 mi WNW 6.9 mph - N/A   Overcast
9:53 AM 46.4 °F 43.5 °F 42.8 °F 87% 30.15 in 10.0 mi WNW 5.8 mph - N/A   Mostly Cloudy
10:11 AM 46.4 °F 42.4 °F 42.8 °F 87% 30.16 in 10.0 mi WNW 8.1 mph - N/A   Mostly Cloudy
10:33 AM 48.2 °F - 41.0 °F 76% 30.15 in 10.0 mi NNW 5.8 mph - N/A   Scattered Clouds
10:53 AM 48.2 °F - 39.2 °F 71% 30.16 in 10.0 mi NW 10.4 mph 17.3 mph N/A   Mostly Cloudy
11:13 AM 50.0 °F - 37.4 °F 62% 30.16 in 10.0 mi WNW 13.8 mph - N/A   Scattered Clouds
11:33 AM 48.2 °F - 37.4 °F 66% 30.16 in 10.0 mi NW 8.1 mph - N/A   Overcast
11:53 AM 50.0 °F - 35.6 °F 58% 30.16 in 10.0 mi NNW 11.5 mph 16.1 mph N/A   Overcast
12:13 PM 51.8 °F - 35.6 °F 54% 30.15 in 10.0 mi West 12.7 mph - N/A   Mostly Cloudy
12:33 PM 51.8 °F - 33.8 °F 50% 30.15 in 10.0 mi NNW 8.1 mph - N/A   Scattered Clouds
12:52 PM 51.8 °F - 35.6 °F 54% 30.15 in 10.0 mi NW 10.4 mph 18.4 mph N/A   Scattered Clouds
1:13 PM 53.6 °F - 33.8 °F 47% 30.15 in 10.0 mi WNW 4.6 mph 18.4 mph N/A   Scattered Clouds
1:33 PM 53.6 °F - 35.6 °F 51% 30.14 in 10.0 mi West 10.4 mph - N/A   Scattered Clouds
1:53 PM 53.6 °F - 33.8 °F 47% 30.14 in 10.0 mi NNW 5.8 mph - N/A   Scattered Clouds
2:13 PM 55.4 °F - 35.6 °F 47% 30.14 in 10.0 mi Calm Calm - N/A   Scattered Clouds
2:33 PM 55.4 °F - 35.6 °F 47% 30.13 in 10.0 mi West 8.1 mph 18.4 mph N/A   Scattered Clouds
2:53 PM 55.4 °F - 35.6 °F 47% 30.13 in 10.0 mi NW 10.4 mph 18.4 mph N/A   Scattered Clouds
3:13 PM 55.4 °F - 33.8 °F 44% 30.13 in 10.0 mi WNW 5.8 mph 16.1 mph N/A   Scattered Clouds
3:33 PM 55.4 °F - 33.8 °F 44% 30.13 in 10.0 mi West 10.4 mph - N/A   Mostly Cloudy
3:53 PM 55.4 °F - 35.6 °F 47% 30.12 in 10.0 mi WNW 6.9 mph 18.4 mph N/A   Scattered Clouds
4:13 PM 55.4 °F - 33.8 °F 44% 30.12 in 10.0 mi NW 8.1 mph - N/A   Mostly Cloudy
4:33 PM 55.4 °F - 35.6 °F 47% 30.12 in 10.0 mi NW 5.8 mph - N/A   Mostly Cloudy
4:53 PM 53.6 °F - 35.6 °F 51% 30.12 in 10.0 mi WNW 4.6 mph 16.1 mph N/A   Mostly Cloudy
5:13 PM 53.6 °F - 35.6 °F 51% 30.12 in 10.0 mi WNW 8.1 mph - N/A   Scattered Clouds
5:33 PM 55.4 °F - 35.6 °F 47% 30.12 in 10.0 mi West 3.5 mph - N/A   Clear
5:53 PM 53.6 °F - 35.6 °F 51% 30.12 in 10.0 mi West 6.9 mph - N/A   Clear
6:13 PM 53.6 °F - 37.4 °F 54% 30.12 in 10.0 mi West 4.6 mph - N/A   Clear
6:33 PM 51.8 °F - 37.4 °F 58% 30.12 in 10.0 mi West 3.5 mph - N/A   Clear
6:53 PM 51.8 °F - 37.4 °F 58% 30.12 in 10.0 mi WSW 3.5 mph - N/A   Clear
7:13 PM 50.0 °F - 37.4 °F 62% 30.11 in 10.0 mi WSW 3.5 mph - N/A   Clear
7:33 PM 48.2 °F - 37.4 °F 66% 30.11 in 10.0 mi WSW 4.6 mph - N/A   Clear
7:53 PM 46.4 °F 45.2 °F 37.4 °F 71% 30.11 in 10.0 mi SW 3.5 mph - N/A   Clear
8:13 PM 44.6 °F - 37.4 °F 76% 30.11 in 10.0 mi Calm Calm - N/A   Clear
8:33 PM 44.6 °F - 37.4 °F 76% 30.12 in 10.0 mi Calm Calm - N/A   Clear
8:53 PM 42.8 °F 41.1 °F 37.4 °F 81% 30.11 in 10.0 mi SW 3.5 mph - N/A   Clear
9:13 PM 42.8 °F 41.1 °F 37.4 °F 81% 30.11 in 10.0 mi SW 3.5 mph - N/A   Clear
9:33 PM 42.8 °F 40.1 °F 37.4 °F 81% 30.12 in 10.0 mi SW 4.6 mph - N/A   Clear
9:52 PM 41.0 °F 38.0 °F 37.4 °F 87% 30.12 in 10.0 mi SW 4.6 mph - N/A   Clear
10:13 PM 41.0 °F 39.0 °F 37.4 °F 87% 30.11 in 10.0 mi SSW 3.5 mph - N/A   Clear
10:33 PM 41.0 °F 38.0 °F 35.6 °F 81% 30.11 in 10.0 mi SW 4.6 mph - N/A   Clear
10:53 PM 41.0 °F 39.0 °F 35.6 °F 81% 30.10 in 10.0 mi SW 3.5 mph - N/A   Clear
11:13 PM 42.8 °F 40.1 °F 35.6 °F 76% 30.10 in 10.0 mi SW 4.6 mph - N/A   Clear
11:33 PM 42.8 °F 41.1 °F 35.6 °F 76% 30.10 in 10.0 mi SSW 3.5 mph - N/A   Clear
11:53 PM 41.0 °F - 35.6 °F 81% 30.10 in 10.0 mi Calm Calm - N/A   Clear